Location: Twentynine Palms Airport
(34.1316°N, 115.9458°W)
Time: 09:45:59
(UTC-08:00)

Amateur Radio Satellites - All Passes

Search period start: 22 December 2014 09:15
Search period end: 23 December 2014 09:15
Location: Twentynine Palms Airport, 34.1316°N, 115.9458°W

Satellite Date Start Highest point End Downlink Frequencies (MHz)
Time Altitude Azimuth
HUMSAT D 22 Dec 09:17:36 09:20:13 16° 94° (E) 09:22:51 437.325/437.525
DUCHIFAT 1 22 Dec 09:22:02 09:25:40 29° 72° (ENE) 09:29:19 145.980
AISAT 22 Dec 09:23:47 09:26:44 17° 95° (E) 09:29:39 437.250
Oscar 11 22 Dec 09:30:46 09:35:09 83° 283° (WNW) 09:39:29 145.826/435.025
AAUSAT CUBESAT 2 22 Dec 09:32:57 09:36:48 34° 287° (WNW) 09:40:37 437.432
QB50P2 22 Dec 09:36:35 09:40:37 46° 74° (ENE) 09:44:39 145.880/145.840
UKube-1 22 Dec 09:40:33 09:44:54 88° 103° (ESE) 09:49:14 .
JUGNU 22 Dec 09:42:01 09:44:26 13° 165° (SSE) 09:46:51 437.505
UNISAT 6 22 Dec 09:45:07 09:49:28 86° 258° (WSW) 09:53:57 437.425
CUSAT 1 22 Dec 09:45:52 09:48:53 23° 290° (WNW) 09:52:38 437.405
POLYITAN 1 22 Dec 09:46:00 09:50:08 61° 75° (ENE) 09:54:18 437.675
NANOSAT C BR1 22 Dec 09:46:28 09:50:36 61° 75° (ENE) 09:54:45 145.865
BRITE-PL 22 Dec 09:50:47 09:53:53 17° 291° (WNW) 09:57:07 437.365/2234.400
CANX-2 22 Dec 09:55:23 09:57:05 12° 294° (WNW) 09:58:48 2200.000
QB50P1 22 Dec 10:01:10 10:05:22 87° 257° (WSW) 10:09:36 145.935-145.965
CUBEBUG 2 22 Dec 10:03:57 10:08:32 56° 285° (WNW) 10:13:12 437.445
ZACube-1 22 Dec 10:06:04 10:10:38 74° 284° (WNW) 10:15:13 437.345
GOMX 1 22 Dec 10:07:46 10:10:42 16° 292° (WNW) 10:13:45 467.674
YUBILEINY 22 Dec 10:09:05 10:17:34 54° 79° (E) 10:26:01 435.215
COMPASS 1 22 Dec 10:11:44 10:13:16 12° 294° (WNW) 10:14:48 437.405
50 SAT 22 Dec 10:14:19 10:18:26 60° 101° (E) 10:22:32 437.505
DELFI C3 22 Dec 10:14:33 10:18:04 28° 288° (WNW) 10:21:33 145.870
VELOX 1 22 Dec 10:14:42 10:19:06 69° 102° (ESE) 10:23:31 145.980
ANTELSAT 22 Dec 10:17:43 10:21:41 34° 262° (W) 10:25:46 437.575/2403.000
DOVE 4 22 Dec 10:24:26 10:27:03 15° 293° (WNW) 10:29:44 437.250
ESTCUBE 1 22 Dec 10:24:38 10:28:41 33° 98° (E) 10:32:42 437.505/2401.250
POPSAT HIP 1 22 Dec 10:30:31 10:34:24 37° 261° (W) 10:38:19 437.405
FUNcube-1 22 Dec 10:32:31 10:36:42 37° 287° (WNW) 10:40:55 145.935
CINEMA 3 22 Dec 10:34:52 10:38:03 18° 292° (WNW) 10:41:18 145.822/145.860
O/OREOS (USA 219) 22 Dec 10:37:01 10:41:13 38° 256° (WSW) 10:45:25 437.305
UWE-3 22 Dec 10:38:34 10:42:28 27° 289° (WNW) 10:46:25 435.000/436.395/437.385
ISS 22 Dec 10:43:53 10:44:28 10° 126° (SE) 10:45:02 145.825
RS-15 22 Dec 10:44:09 10:55:01 71° 114° (ESE) 11:05:51 29.354- 29.394
BUGSAT 1 22 Dec 10:47:14 10:50:47 28° 262° (W) 10:54:19 437.445
DX 1 22 Dec 10:49:16 10:51:45 15° 293° (WNW) 10:54:14 434.975-435.025
HO-68 22 Dec 10:49:18 10:52:05 13° 304° (WNW) 10:54:53 435.675
SRMSAT 22 Dec 10:50:23 10:51:38 11° 164° (SSE) 10:52:53 437.500
HUMSAT D 22 Dec 10:52:07 10:56:05 36° 287° (WNW) 11:00:04 437.325/437.525
TIGRISAT 22 Dec 10:53:54 10:56:13 14° 267° (W) 10:58:34 435.000
CUBEBUG 1 22 Dec 10:57:44 11:02:05 78° 102° (ESE) 11:06:25 437.445
DUCHIFAT 1 22 Dec 10:58:41 11:01:32 18° 265° (W) 11:04:23 145.980
AISAT 22 Dec 10:59:23 11:03:24 34° 288° (WNW) 11:07:25 437.250
Oscar 19 22 Dec 11:09:59 11:12:01 12° 63° (ENE) 11:14:03 437.125/150
QB50P2 22 Dec 11:15:23 11:16:44 11° 267° (W) 11:18:04 145.880/145.840
BEESAT 2 22 Dec 11:27:30 11:30:49 24° 111° (ESE) 11:34:10 435.950
JUGNU 22 Dec 11:28:38 11:32:46 19° 175° (S) 11:36:53 437.505
TISAT 1 22 Dec 11:47:43 11:51:56 68° 101° (ESE) 11:56:09 437.305
SWISSCUBE 22 Dec 11:56:01 11:57:04 11° 92° (E) 11:58:06 437.505
SPROUT 22 Dec 11:57:39 12:01:58 84° 103° (ESE) 12:06:17 437.525
ESTCUBE 1 22 Dec 12:02:09 12:05:17 19° 292° (WNW) 12:08:25 437.505/2401.250
YUBILEINY 22 Dec 12:06:53 12:13:46 27° 276° (W) 12:20:41 435.215
ISS 22 Dec 12:17:24 12:20:39 56° 319° (NW) 12:23:54 145.825
BEESAT 22 Dec 12:18:30 12:21:52 19° 95° (E) 12:25:12 436.000
BEESAT 3 22 Dec 12:22:54 12:26:56 62° 300° (WNW) 12:31:03 437.485
SRMSAT 22 Dec 12:36:09 12:40:06 18° 173° (S) 12:44:02 437.500
AIST 2 22 Dec 12:41:28 12:45:39 79° 117° (ESE) 12:49:57 435.215
Oscar 19 22 Dec 12:45:36 12:50:42 69° 258° (WSW) 12:55:51 437.125/150
PCSat 22 Dec 12:49:54 12:55:18 85° 295° (WNW) 13:00:45 145.827
RS-15 22 Dec 12:58:54 13:08:13 31° 316° (NW) 13:17:40 29.354- 29.394
BEESAT 2 22 Dec 13:05:33 13:08:57 25° 306° (NW) 13:12:23 435.950
ITAMSAT 1 22 Dec 13:05:57 13:11:05 67° 74° (ENE) 13:16:13 435.822/435.867
Gurwin Techsat 1B 22 Dec 13:13:20 13:18:23 46° 72° (ENE) 13:23:27 435.225
HORYU 2 22 Dec 13:16:10 13:18:48 16° 67° (ENE) 13:21:27 437.375
JUGNU 22 Dec 13:17:02 13:21:08 19° 185° (S) 13:25:13 437.505
SWISSCUBE 22 Dec 13:30:33 13:35:15 61° 286° (WNW) 13:39:55 437.505
ITUPSAT 1 22 Dec 13:31:53 13:36:37 66° 285° (WNW) 13:41:19 437.325
AUBIESAT-1 22 Dec 13:38:17 13:42:10 40° 102° (ESE) 13:45:44 437.475
BEESAT 22 Dec 13:55:25 13:59:45 36° 289° (WNW) 14:04:04 436.000
M-CUBED/EXP-1 PRIME 22 Dec 14:05:19 14:09:32 78° 288° (WNW) 14:13:21 437.505
STARS 22 Dec 14:16:02 14:20:20 47° 100° (E) 14:24:37 437.465
JAS-2 22 Dec 14:20:48 14:24:10 14° 62° (ENE) 14:27:25 435.910
KKS-1 22 Dec 14:24:15 14:28:44 87° 284° (WNW) 14:33:13 437.445
AIST 2 22 Dec 14:24:23 14:24:49 10° 314° (NW) 14:25:14 435.215
SRMSAT 22 Dec 14:24:27 14:28:37 20° 183° (S) 14:32:46 437.500
AO-7 22 Dec 14:35:39 14:43:42 57° 68° (ENE) 14:51:48 29.400- 29.500
PCSat 22 Dec 14:37:45 14:39:30 11° 313° (NW) 14:41:15 145.827
ITAMSAT 1 22 Dec 14:49:19 14:50:57 11° 268° (W) 14:52:35 435.822/435.867
HORYU 2 22 Dec 14:50:54 14:55:05 40° 261° (W) 14:59:20 437.375
Gurwin Techsat 1B 22 Dec 14:55:01 14:58:31 18° 266° (W) 15:02:02 435.225
JUGNU 22 Dec 15:07:15 15:09:27 12° 195° (SSW) 15:11:39 437.505
AUBIESAT-1 22 Dec 15:14:36 15:16:40 14° 300° (WNW) 15:18:39 437.475
RS-15 22 Dec 15:23:15 15:25:55 11° 350° (N) 15:28:36 29.354- 29.394
AIST 1 22 Dec 15:31:45 15:36:01 54° 94° (E) 15:40:16
MOZHAYETS 4 22 Dec 15:49:52 15:53:26 22° 95° (E) 15:56:59
STARS 22 Dec 15:54:14 15:56:22 13° 294° (WNW) 15:58:30 437.465
JAS-2 22 Dec 16:00:38 16:08:21 83° 76° (ENE) 16:15:24 435.910
GONETS M04 22 Dec 16:04:21 16:13:03 66° 81° (E) 16:21:38
SRMSAT 22 Dec 16:14:13 16:17:06 14° 193° (SSW) 16:19:58 437.500
Cubesat XI-IV 22 Dec 16:19:30 16:23:34 23° 67° (ENE) 16:27:38 437.490
AO-7 22 Dec 16:29:59 16:36:44 28° 263° (W) 16:43:35 29.400- 29.500
CUTE-I 22 Dec 16:50:57 16:55:59 45° 72° (ENE) 17:01:01 437.470
MaSat-1 22 Dec 17:12:51 17:15:00 27° 65° (ENE) 17:17:17 437.345
CUBESAT XI-V 22 Dec 17:20:22 17:22:37 13° 93° (E) 17:24:52 437.345
PRISM 22 Dec 17:20:50 17:24:24 27° 97° (E) 17:27:55 437.425
MOZHAYETS 4 22 Dec 17:26:39 17:30:37 29° 289° (WNW) 17:34:32
RS-15 22 Dec 17:38:42 17:45:29 17° 29° (NNE) 17:52:24 29.354- 29.394
JAS-2 22 Dec 17:49:29 17:53:43 16° 268° (W) 17:57:49 435.910
Cubesat XI-IV 22 Dec 17:58:27 18:03:22 38° 261° (W) 18:08:19 437.490
GONETS M04 22 Dec 18:02:50 18:09:00 22° 278° (W) 18:15:09
DANDE 22 Dec 18:07:21 18:09:42 11° 65° (ENE) 18:12:05 436.750
STRAND 1 22 Dec 18:23:42 18:28:43 58° 101° (E) 18:33:44 437.568
CUTE-I 22 Dec 18:32:36 18:36:12 18° 266° (W) 18:39:49 437.470
SO-50 22 Dec 18:42:39 18:45:14 15° 108° (ESE) 18:47:52 436.795
CUSAT 1 22 Dec 18:43:56 18:50:36 27° 72° (ENE) 18:57:28 437.405
ISS 22 Dec 18:48:47 18:51:40 27° 36° (NE) 18:54:31 145.825
CUBESAT XI-V 22 Dec 18:55:52 19:00:15 46° 286° (WNW) 19:04:38 437.345
PRISM 22 Dec 18:56:48 18:59:42 19° 291° (WNW) 19:02:36 437.425
CANX-2 22 Dec 19:07:39 19:10:58 22° 70° (ENE) 19:14:18 2200.000
BRITE-PL 22 Dec 19:19:38 19:23:17 30° 72° (ENE) 19:26:54 437.365/2234.400
HO-68 22 Dec 19:22:28 19:29:23 54° 70° (ENE) 19:36:19 435.675
COMPASS 1 22 Dec 19:22:41 19:25:54 22° 70° (ENE) 19:29:08 437.405
SEEDS 22 Dec 19:30:55 19:34:41 32° 72° (ENE) 19:38:30 437.485
GOMX 1 22 Dec 19:34:03 19:37:41 30° 72° (ENE) 19:41:20 467.674
CUTE 1.7 + AOD 2 22 Dec 19:37:15 19:41:19 46° 74° (ENE) 19:45:25 437.475
DANDE 22 Dec 19:46:12 19:54:18 64° 80° (E) 20:02:54 436.750
DOVE 4 22 Dec 19:48:11 19:51:51 32° 72° (ENE) 19:55:35 437.250
RS-15 22 Dec 19:49:47 20:00:56 59° 56° (NE) 20:12:33 29.354- 29.394
CINEMA 3 22 Dec 19:56:09 19:59:24 23° 70° (ENE) 20:02:43 145.822/145.860
UWE-3 22 Dec 19:58:24 19:59:56 12° 66° (ENE) 20:01:29 435.000/436.395/437.385
DX 1 22 Dec 20:04:35 20:07:57 22° 69° (ENE) 20:11:18 434.975-435.025
STRAND 1 22 Dec 20:04:46 20:07:22 14° 296° (WNW) 20:09:58 437.568
AAUSAT CUBESAT 2 22 Dec 20:19:57 20:24:09 85° 258° (WSW) 20:28:24 437.432
AISAT 22 Dec 20:20:58 20:21:47 10° 65° (ENE) 20:22:36 437.250
SO-50 22 Dec 20:21:00 20:25:19 45° 303° (WNW) 20:29:47 436.795
Oscar 11 22 Dec 20:21:54 20:26:02 46° 74° (ENE) 20:30:12 145.826/435.025
ISS 22 Dec 20:25:32 20:28:07 22° 231° (SW) 20:30:41 145.825
CUSAT 1 22 Dec 20:25:58 20:34:00 63° 266° (W) 20:42:18 437.405
UKube-1 22 Dec 20:32:04 20:36:11 45° 73° (ENE) 20:40:19 .
CANX-2 22 Dec 20:43:15 20:46:45 25° 264° (W) 20:50:16 2200.000
BEESAT 3 22 Dec 20:46:31 20:50:00 25° 54° (NE) 20:53:26 437.485
COMPASS 1 22 Dec 20:57:58 21:01:27 25° 264° (W) 21:04:59 437.405
DELFI C3 22 Dec 20:58:40 21:02:45 74° 258° (WSW) 21:06:53 145.870
ZACube-1 22 Dec 20:58:46 21:02:50 53° 75° (ENE) 21:06:59 437.345
CUBEBUG 2 22 Dec 20:58:51 21:03:00 78° 77° (ENE) 21:07:17 437.445
BRITE-PL 22 Dec 20:59:18 21:01:52 16° 266° (W) 21:04:26 437.365/2234.400
50 SAT 22 Dec 20:59:43 21:02:52 23° 71° (ENE) 21:06:02 437.505
SEEDS 22 Dec 21:07:50 21:10:33 17° 266° (W) 21:13:18 437.485
AIST 2 22 Dec 21:07:52 21:10:54 19° 51° (NE) 21:13:54 435.215
VELOX 1 22 Dec 21:09:09 21:13:13 38° 72° (ENE) 21:17:19 145.980
HO-68 22 Dec 21:11:42 21:17:18 24° 264° (W) 21:22:57 435.675
TIGRISAT 22 Dec 21:12:41 21:14:40 12° 92° (E) 21:16:38 435.000
GOMX 1 22 Dec 21:13:21 21:15:53 16° 266° (W) 21:18:26 467.674
CUTE 1.7 + AOD 2 22 Dec 21:15:54 21:17:27 12° 268° (W) 21:18:59 437.475
ESTCUBE 1 22 Dec 21:21:32 21:24:53 21° 69° (ENE) 21:28:14 437.505/2401.250
FUNcube-1 22 Dec 21:24:38 21:28:47 73° 259° (WSW) 21:33:03 145.935
DOVE 4 22 Dec 21:27:17 21:29:43 15° 266° (W) 21:32:11 437.250
BEESAT 2 22 Dec 21:28:13 21:32:23 65° 60° (ENE) 21:36:28 435.950
QB50P2 22 Dec 21:29:01 21:29:36 10° 92° (E) 21:30:10 145.880/145.840
DANDE 22 Dec 21:30:48 21:37:16 26° 273° (W) 21:44:02 436.750
UWE-3 22 Dec 21:31:59 21:35:59 47° 261° (W) 21:40:07 435.000/436.395/437.385
CINEMA 3 22 Dec 21:33:13 21:36:30 23° 265° (W) 21:39:52 145.822/145.860
POLYITAN 1 22 Dec 21:37:13 21:39:26 14° 94° (E) 21:41:40 437.675
NANOSAT C BR1 22 Dec 21:37:17 21:39:23 13° 93° (E) 21:41:30 145.865
HUMSAT D 22 Dec 21:40:19 21:44:26 83° 258° (WSW) 21:48:38 437.325/437.525
DX 1 22 Dec 21:40:24 21:44:01 26° 263° (W) 21:47:39 434.975-435.025
UNISAT 6 22 Dec 21:41:24 21:45:27 28° 96° (E) 21:49:28 437.425
PCSat 22 Dec 21:41:53 21:46:50 35° 58° (ENE) 21:51:43 145.827
CUBEBUG 1 22 Dec 21:50:33 21:54:38 40° 73° (ENE) 21:58:41 437.445
QB50P1 22 Dec 21:51:12 21:54:23 20° 96° (E) 21:57:33 145.935-145.965
AISAT 22 Dec 21:53:29 21:57:51 60° 259° (W) 22:02:13 437.250
Oscar 11 22 Dec 22:00:43 22:02:24 12° 268° (W) 22:04:05 145.826/435.025
RS-15 22 Dec 22:02:51 22:12:47 36° 254° (WSW) 22:23:07 29.354- 29.394
UKube-1 22 Dec 22:10:44 22:12:31 12° 267° (W) 22:14:19 .
ANTELSAT 22 Dec 22:13:04 22:17:47 65° 101° (E) 22:22:27 437.575/2403.000
POPSAT HIP 1 22 Dec 22:19:28 22:23:34 45° 99° (E) 22:27:40 437.405
BEESAT 3 22 Dec 22:24:44 22:28:03 23° 249° (WSW) 22:31:19 437.485
BUGSAT 1 22 Dec 22:32:52 22:36:49 50° 100° (E) 22:40:49 437.445
50 SAT 22 Dec 22:34:52 22:37:57 21° 264° (W) 22:41:04 437.505
TISAT 1 22 Dec 22:37:06 22:40:46 30° 72° (ENE) 22:44:28 437.305
AIST 2 22 Dec 22:45:42 22:49:37 36° 247° (WSW) 22:53:29 435.215
DUCHIFAT 1 22 Dec 22:46:01 22:50:17 84° 283° (WNW) 22:54:33 145.980
TIGRISAT 22 Dec 22:47:03 22:51:39 54° 286° (WNW) 22:56:14 435.000
VELOX 1 22 Dec 22:47:19 22:49:54 15° 266° (W) 22:52:30 145.980
SPROUT 22 Dec 22:48:28 22:52:26 38° 73° (ENE) 22:56:24 437.525
ESTCUBE 1 22 Dec 22:57:31 23:01:31 31° 263° (W) 23:05:32 437.505/2401.250
QB50P2 22 Dec 23:01:35 23:05:45 52° 285° (WNW) 23:09:55 145.880/145.840
YUBILEINY 22 Dec 23:04:46 23:13:26 71° 93° (E) 23:22:05 435.215
O/OREOS (USA 219) 22 Dec 23:06:23 23:10:27 36° 104° (ESE) 23:14:31 437.305
NANOSAT C BR1 22 Dec 23:11:24 23:15:23 40° 287° (WNW) 23:19:23 145.865
POLYITAN 1 22 Dec 23:11:29 23:15:30 40° 287° (WNW) 23:19:31 437.675
UNISAT 6 22 Dec 23:18:15 23:22:04 25° 290° (WNW) 23:25:52 437.425
BEESAT 22 Dec 23:22:27 23:25:12 15° 66° (ENE) 23:27:58 436.000
PCSat 22 Dec 23:25:34 23:30:02 27° 253° (WSW) 23:34:29 145.827
QB50P1 22 Dec 23:26:37 23:30:12 27° 289° (WNW) 23:33:49 145.935-145.965
CUBEBUG 1 22 Dec 23:28:47 23:31:07 14° 266° (W) 23:33:27 437.445
ANTELSAT 22 Dec 23:52:28 23:53:58 11° 295° (WNW) 23:55:27 437.575/2403.000
POPSAT HIP 1 22 Dec 23:57:05 23:59:02 13° 293° (WNW) 00:01:00 437.405
BUGSAT 1 23 Dec 00:11:05 00:11:51 10° 294° (WNW) 00:12:37 437.445
TISAT 1 23 Dec 00:13:50 00:16:36 17° 265° (W) 00:19:24 437.305
VERMONT LUNAR 23 Dec 00:20:52 00:23:56 28° 146° (SE) 00:27:00 437.305
AUBIESAT-1 23 Dec 00:22:51 00:27:14 36° 67° (ENE) 00:31:41 437.475
SPROUT 23 Dec 00:26:24 00:28:38 14° 267° (W) 00:30:53 437.525
SWISSCUBE 23 Dec 00:33:19 00:38:06 83° 257° (WSW) 00:42:55 437.505
ITUPSAT 1 23 Dec 00:34:52 00:39:41 88° 257° (WSW) 00:44:30 437.325
O/OREOS (USA 219) 23 Dec 00:46:58 00:49:56 17° 299° (WNW) 00:52:55 437.305
PHONESAT 2.4 23 Dec 00:47:23 00:50:33 29° 146° (SE) 00:53:44 2401.200-2431.200
M-CUBED/EXP-1 PRIME 23 Dec 00:49:57 00:54:45 78° 72° (ENE) 00:59:41 437.505
BEESAT 23 Dec 00:58:00 01:02:36 48° 260° (W) 01:07:14 436.000
Oscar 19 23 Dec 01:01:00 01:06:07 58° 101° (E) 01:11:13 437.125/150
YUBILEINY 23 Dec 01:04:45 01:10:55 21° 290° (WNW) 01:17:08 435.215
STARS 23 Dec 01:10:09 01:13:47 26° 70° (ENE) 01:17:27 437.465
KKS-1 23 Dec 01:18:53 01:23:10 52° 74° (ENE) 01:27:29 437.445
ITAMSAT 1 23 Dec 01:23:00 01:27:36 32° 98° (E) 01:32:11 435.822/435.867
Gurwin Techsat 1B 23 Dec 01:33:51 01:38:11 25° 96° (E) 01:42:30 435.225
AUBIESAT-1 23 Dec 01:58:27 02:02:09 22° 261° (W) 02:05:55 437.475
VERMONT LUNAR 23 Dec 01:58:37 02:02:06 55° 340° (NNW) 02:05:34 437.305
PHONESAT 2.4 23 Dec 02:25:32 02:29:06 56° 340° (NNW) 02:32:41 2401.200-2431.200
Oscar 19 23 Dec 02:42:06 02:44:55 15° 295° (WNW) 02:47:44 437.125/150
AO-7 23 Dec 02:42:45 02:48:55 22° 95° (E) 02:55:01 29.400- 29.500
HORYU 2 23 Dec 02:45:58 02:50:22 50° 100° (E) 02:54:44 437.375
STARS 23 Dec 02:46:49 02:50:11 22° 264° (W) 02:53:35 437.465
MOZHAYETS 4 23 Dec 02:49:31 02:52:01 15° 67° (ENE) 02:54:32
KKS-1 23 Dec 02:58:53 03:00:04 11° 268° (W) 03:01:15 437.445
ITAMSAT 1 23 Dec 03:02:43 03:06:54 25° 292° (WNW) 03:11:04 435.822/435.867
GONETS M04 23 Dec 03:09:54 03:13:24 13° 78° (ENE) 03:16:55
Gurwin Techsat 1B 23 Dec 03:13:25 03:18:07 33° 290° (WNW) 03:22:48 435.225
AIST 1 23 Dec 03:20:25 03:24:36 56° 266° (W) 03:28:45
VERMONT LUNAR 23 Dec 03:37:43 03:40:48 28° 357° (N) 03:43:53 437.305
PHONESAT 2.4 23 Dec 04:05:00 04:08:12 29° 357° (N) 04:11:24 2401.200-2431.200
PRISM 23 Dec 04:09:27 04:11:39 14° 67° (ENE) 04:13:52 437.425
MOZHAYETS 4 23 Dec 04:24:20 04:28:48 47° 261° (W) 04:33:18
HORYU 2 23 Dec 04:24:29 04:26:33 13° 294° (WNW) 04:28:37 437.375
AO-7 23 Dec 04:33:53 04:42:09 68° 291° (WNW) 04:50:23 29.400- 29.500
Cubesat XI-IV 23 Dec 04:42:21 04:43:55 11° 92° (E) 04:45:28 437.490
SO-50 23 Dec 04:55:42 05:00:33 58° 59° (ENE) 05:05:22 436.795
GONETS M04 23 Dec 04:59:57 05:08:47 84° 94° (E) 05:17:39
JAS-2 23 Dec 05:00:28 05:05:55 80° 284° (WNW) 05:11:04 435.910
CUTE-I 23 Dec 05:12:23 05:16:40 24° 96° (E) 05:20:56 437.470
VERMONT LUNAR 23 Dec 05:16:17 05:19:36 38° 14° (NNE) 05:22:56 437.305
STRAND 1 23 Dec 05:35:53 05:40:52 57° 74° (ENE) 05:45:52 437.568
PRISM 23 Dec 05:42:49 05:46:48 40° 261° (W) 05:50:47 437.425
PHONESAT 2.4 23 Dec 05:43:56 05:47:23 40° 14° (NNE) 05:50:49 2401.200-2431.200
CUBESAT XI-V 23 Dec 05:55:13 05:59:53 75° 258° (WSW) 06:04:33 437.345
Cubesat XI-IV 23 Dec 06:19:07 06:24:25 70° 285° (WNW) 06:29:42 437.490
AO-7 23 Dec 06:30:22 06:33:22 12° 309° (NW) 06:36:22 29.400- 29.500
SO-50 23 Dec 06:38:08 06:40:35 14° 253° (WSW) 06:43:01 436.795
CUTE-I 23 Dec 06:51:58 06:56:43 34° 290° (WNW) 07:01:28 437.470
VERMONT LUNAR 23 Dec 06:54:33 06:57:59 52° 210° (SSW) 07:01:24 437.305
GONETS M04 23 Dec 07:01:16 07:06:36 17° 293° (WNW) 07:11:58
STRAND 1 23 Dec 07:17:58 07:20:21 13° 267° (W) 07:22:45 437.568
PHONESAT 2.4 23 Dec 07:22:36 07:26:08 51° 210° (SSW) 07:29:39 2401.200-2431.200
BRITE-PL 23 Dec 07:27:46 07:30:51 16° 95° (E) 07:34:02 437.365/2234.400
CUTE 1.7 + AOD 2 23 Dec 07:29:13 07:30:12 11° 92° (E) 07:31:12 437.475
GOMX 1 23 Dec 07:39:37 07:42:32 15° 94° (E) 07:45:30 467.674
DOVE 4 23 Dec 07:51:27 07:54:13 15° 93° (E) 07:57:02 437.250
CUSAT 1 23 Dec 07:53:14 07:55:36 16° 82° (E) 07:58:21 437.405
MaSat-1 23 Dec 07:58:49 08:00:29 18° 296° (WNW) 08:02:07 437.345
AAUSAT CUBESAT 2 23 Dec 08:08:12 08:11:21 20° 95° (E) 08:14:29 437.432
Oscar 11 23 Dec 08:15:29 08:16:51 11° 92° (E) 08:18:12 145.826/435.025
CANX-2 23 Dec 08:31:41 08:36:00 75° 101° (ESE) 08:40:17 2200.000
UNISAT 6 23 Dec 08:38:20 08:40:58 16° 67° (ENE) 08:43:37 437.425
HO-68 23 Dec 08:41:29 08:48:39 79° 105° (ESE) 08:55:47 435.675
DELFI C3 23 Dec 08:43:54 08:46:58 20° 95° (E) 08:50:01 145.870
COMPASS 1 23 Dec 08:44:52 08:49:07 68° 101° (E) 08:53:19 437.405
ZACube-1 23 Dec 08:52:33 08:55:15 15° 93° (E) 08:57:56 437.345
CUBEBUG 2 23 Dec 08:54:12 08:57:59 24° 96° (E) 09:01:47 437.445
SEEDS 23 Dec 08:54:36 08:58:53 75° 283° (WNW) 09:03:07 437.485
DANDE 23 Dec 08:58:05 09:01:31 86° 98° (E) 09:06:09 436.750
CUTE 1.7 + AOD 2 23 Dec 09:02:12 09:06:23 50° 285° (WNW) 09:10:31 437.475
BRITE-PL 23 Dec 09:04:44 09:09:25 48° 286° (WNW) 09:14:27 437.365/2234.400
